This is the latest recevied weather packets stored in our database for station/object IT9CNT. If no packets are shown the sender has not sent any weather packets the latest 1 day(s).
| Time | Temp. | Humidity | Pressure | Rain* | Wind** | Luminosity | Snow |
|---|---|---|---|---|---|---|---|
| 1777987383 | 19.44° C | 76% | 1013.5 hPa | 0 mm | 4.02 m/s, 161° | - | - |
| 1777987323 | 18.89° C | 77% | 1013.3 hPa | 0 mm | 4.02 m/s, 160° | - | - |
| 1777987263 | 19.44° C | 74% | 1013.4 hPa | 0 mm | 4.02 m/s, 164° | - | - |
| 1777987204 | 19.44° C | 74% | 1013.2 hPa | 0 mm | 4.02 m/s, 166° | - | - |
| 1777987144 | 19.44° C | 70% | 1013.5 hPa | 0 mm | 4.02 m/s, 173° | - | - |
| 1777987083 | 19.44° C | 69% | 1013.2 hPa | 0 mm | 4.02 m/s, 182° | - | - |
| 1777987023 | 19.44° C | 74% | 1013.5 hPa | 0 mm | 4.02 m/s, 185° | - | - |
| 1777986964 | 19.44° C | 74% | 1013.5 hPa | 0 mm | 4.02 m/s, 192° | - | - |
| 1777986903 | 19.44° C | 75% | 1013.4 hPa | 0 mm | 4.02 m/s, 196° | - | - |
| 1777986843 | 19.44° C | 75% | 1013.5 hPa | 0 mm | 4.47 m/s, 200° | - | - |
| 1777986783 | 19.44° C | 77% | 1013.5 hPa | 0 mm | 4.47 m/s, 200° | - | - |
| 1777986723 | 20° C | 77% | 1013.4 hPa | 0 mm | 4.47 m/s, 208° | - | - |
| 1777986663 | 20° C | 76% | 1013.4 hPa | 0 mm | 4.92 m/s, 204° | - | - |
| 1777986603 | 19.44° C | 77% | 1013.5 hPa | 0 mm | 4.92 m/s, 199° | - | - |
| 1777986543 | 19.44° C | 75% | 1013.5 hPa | 0 mm | 4.47 m/s, 194° | - | - |
| 1777986483 | 19.44° C | 77% | 1013.6 hPa | 0 mm | 4.47 m/s, 186° | - | - |
| 1777986423 | 19.44° C | 77% | 1013.4 hPa | 0 mm | 4.47 m/s, 188° | - | - |
| 1777986363 | 19.44° C | 78% | 1013.1 hPa | 0 mm | 4.02 m/s, 180° | - | - |
| 1777986303 | 19.44° C | 75% | 1013.5 hPa | 0 mm | 4.02 m/s, 170° | - | - |
| 1777986243 | 19.44° C | 75% | 1013.5 hPa | 0 mm | 3.58 m/s, 158° | - | - |
| 1777986186 | 20° C | 73% | 1013.4 hPa | 0 mm | 3.58 m/s, 154° | - | - |
| 1777986123 | 20° C | 73% | 1013.4 hPa | 0 mm | 3.13 m/s, 143° | - | - |
| 1777986063 | 20.56° C | 66% | 1013.5 hPa | 0 mm | 3.13 m/s, 140° | - | - |
| 1777986003 | 20.56° C | 66% | 1013.3 hPa | 0 mm | 3.13 m/s, 145° | - | - |
| 1777985943 | 20° C | 66% | 1013.5 hPa | 0 mm | 3.13 m/s, 148° | - | - |
* Rain latest hour (hover to see other rain measurements)
** Current wind speed in m/s (hover to see current wind gust speed)